FW0019 Weather Reports


Display with metric or nautical units.
time (UTC)temp
F
wind
direction
speed
MPH
gust
MPH
rain 1hr
in
rain 24hr
in
rain mn
in
humidity
%
barometer
mb
20260504081524 41 130 14.0 31.0 0.00 0.00 0.00 97 875.3
20260504050115 42 102 14.0 28.0 0.00 0.00 0.00 97 875.0
20260504044557 42 111 15.0 25.0 0.00 0.00 0.00 97 875.2
20260504043102 42 139 14.0 24.0 0.00 0.00 0.00 97 875.0
20260504041556 43 123 12.0 19.0 0.00 0.00 0.00 96 874.9
20260504034558 43 144 14.0 21.0 0.00 0.00 0.00 96 875.2
20260504033053 43 134 13.0 23.0 0.00 0.00 0.00 96 875.1
20260504031547 43 121 11.0 18.0 0.00 0.00 0.00 96 875.2
20260504030116 43 72 10.0 21.0 0.00 0.00 0.00 96 874.9
20260504024544 44 161 15.0 23.0 0.00 0.00 0.00 96 874.7
20260504023042 44 192 14.0 23.0 0.00 0.00 0.00 95 874.7
20260504021540 44 138 17.0 28.0 0.00 0.00 0.00 95 874.8
20260504020046 45 151 17.0 26.0 0.00 0.00 0.00 94 874.6
20260504014538 46 114 15.0 26.0 0.00 0.00 0.00 92 874.8
20260504013036 47 143 15.0 26.0 0.00 0.00 0.00 92 874.7
20260504011529 48 131 12.0 24.0 0.00 0.00 0.00 91 874.8
20260504010027 49 134 11.0 25.0 0.00 0.00 0.00 91 874.7
20260504004525 49 140 10.0 24.0 0.00 0.00 0.00 91 874.7
20260504003024 50 150 12.0 25.0 0.00 0.00 0.00 90 874.6
20260504001524 50 104 9.0 19.0 0.00 0.00 0.00 88 874.6
20260504000023 50 103 13.0 21.0 0.00 0.00 0.00 89 874.7
20260503234523 49 132 12.0 22.0 0.00 0.00 0.00 92 874.4
20260503233021 49 130 14.0 21.0 0.00 0.00 0.00 92 874.5
20260503231521 50 136 14.0 25.0 0.00 0.00 0.00 91 874.6
20260503230017 51 138 14.0 23.0 0.00 0.00 0.00 90 874.7
20260503224515 50 106 13.0 22.0 0.00 0.00 0.00 90 874.8
20260503223013 51 135 13.0 22.0 0.00 0.00 0.00 90 874.9
20260503221512 50 144 13.0 20.0 0.00 0.00 0.00 91 874.8
20260503220011 52 144 12.0 21.0 0.00 0.00 0.00 88 875.2
20260503214532 54 128 10.0 16.0 0.00 0.00 0.00 86 875.1
20260503213010 55 153 9.0 17.0 0.00 0.00 0.00 83 875.3
20260503211510 54 119 10.0 18.0 0.00 0.00 0.00 85 875.3
20260503210010 54 148 12.0 18.0 0.00 0.00 0.00 87 875.4
20260503204510 53 120 9.0 15.0 0.00 0.00 0.00 89 875.5
20260503203008 51 105 7.0 17.0 0.00 0.00 0.00 92 875.6
20260503201508 51 157 10.0 20.0 0.00 0.00 0.00 92 875.7
20260503200005 52 140 12.0 17.0 0.00 0.00 0.00 90 875.7
20260503194503 53 129 13.0 21.0 0.00 0.00 0.00 87 875.7
20260503193105 56 142 13.0 21.0 0.00 0.00 0.00 83 875.8
20260503191607 59 118 13.0 20.0 0.00 0.00 0.00 77 875.8
20260503184622 63 104 7.0 11.0 0.00 0.00 0.00 63 876.0
20260503183100 67 95 5.0 17.0 0.00 0.00 0.00 37 876.2
20260503181611 62 261 4.0 9.0 0.00 0.00 0.00 44 876.3
20260503180111 58 80 3.0 11.0 0.00 0.00 0.00 75 876.5
20260503174557 59 135 6.0 12.0 0.00 0.00 0.00 75 876.5
20260503173100 58 158 8.0 12.0 0.00 0.00 0.00 73 876.2
20260503171552 59 163 6.0 11.0 0.00 0.00 0.00 71 876.3